Weather History for Plattsburgh, NY

Change the Weather History Date:

Wednesday, January 23, 2013

  Actual Average Record
Temperature  
Mean Temperature -6 °F 16 °F  
Max Temperature 1 °F 27 °F 47 °F (1957)
Min Temperature -13 °F 5 °F -25 °F (1976)
Degree Days  
Heating Degree Days 71 49  
Month to date heating degree days 1029 1102  
Since 1 July heating degree days 3688 3988  
Moisture  
Dew Point -16 °F    
Average Humidity 60    
Maximum Humidity 75    
Minimum Humidity 45    
Precipitation  
Precipitation T in - 1.30 in (1987)
Month to date precipitation 0.31  
Year to date precipitation 0.31  
Sea Level Pressure  
Sea Level Pressure 30.20 in    
Wind  
Wind Speed 4 mph (NNW)    
Max Wind Speed 14 mph    
Max Gust Speed 17 mph    
Visibility 10 miles    
Events      
T = Trace of Precipitation, MM = Missing Value Source: NWS Daily Summary

Daily Weather History Graph

Daily Weather History Graph

Search for Another Location

Airport:

Trip Planner

Search our weather history database for the weather conditions in past years. The results will help you decide how hot, cold, wet, or windy it might be!

Date:

Astronomy

Jan. 23, 2013 Rise Set
Actual Time 7:21 AM EST 4:50 PM EST
Civil Twilight 6:49 AM EST 5:22 PM EST
Nautical Twilight 6:14 AM EST 5:57 PM EST
Astronomical Twilight 5:39 AM EST 6:32 PM EST
Moon 1:56 PM EST (1/23) 4:32 AM EST (1/23)
Length of Visible Light 10h 32m
Length of Day
9h 28m
Waxing Gibbous, 89% of the Moon is Illuminated
Jan 23
Waxing Gibbous
Jan 26
Full
Feb 3
Last Quarter
Feb 10
New
Feb 17
First Quarter

Hourly Weather History & Observations

Time (EST) Temp. Windchill Dew Point Humidity Pressure Visibility Wind Dir Wind Speed Gust Speed Precip Events Conditions
12:53 AM -2.9 °F -16.5 °F -11.9 °F 65% 30.14 in 10.0 mi NW 6.9 mph - N/A   Partly Cloudy
1:53 AM -2.9 °F -13.3 °F -16.1 °F 54% 30.16 in 10.0 mi NW 4.6 mph - N/A   Clear
2:53 AM -5.1 °F -20.4 °F -17.0 °F 57% 30.17 in 10.0 mi NNW 8.1 mph - N/A   Mostly Cloudy
3:53 AM -6.0 °F -24.6 °F -18.9 °F 54% 30.18 in 10.0 mi NW 11.5 mph - N/A   Overcast
4:53 AM -7.1 °F -19.9 °F -20.0 °F 53% 30.19 in 10.0 mi Variable 5.8 mph - N/A   Partly Cloudy
5:53 AM -9.0 °F -22.3 °F -20.9 °F 56% 30.20 in 10.0 mi NW 5.8 mph - N/A   Clear
6:53 AM -11.0 °F - -20.9 °F 62% 30.21 in 10.0 mi Calm Calm - N/A   Clear
7:53 AM -9.0 °F - -20.9 °F 56% 30.23 in 10.0 mi Calm Calm - N/A   Clear
8:53 AM -8.0 °F -19.2 °F -20.9 °F 53% 30.24 in 10.0 mi Variable 4.6 mph - N/A   Clear
9:53 AM -6.0 °F - -20.9 °F 49% 30.25 in 10.0 mi Calm Calm - N/A   Clear
10:53 AM -4.0 °F - -20.0 °F 46% 30.25 in 10.0 mi Calm Calm - N/A   Clear
11:53 AM -2.9 °F -11.2 °F -18.9 °F 46% 30.22 in 10.0 mi NE 3.5 mph - 0.00 in   Clear
12:53 PM -2.0 °F -17.7 °F -11.9 °F 63% 30.19 in 10.0 mi East 9.2 mph - 0.00 in   Clear
1:53 PM -0.9 °F -11.0 °F -11.9 °F 60% 30.19 in 10.0 mi Variable 4.6 mph - N/A   Clear
2:53 PM -0.0 °F -11.6 °F -11.9 °F 57% 30.18 in 10.0 mi Variable 5.8 mph - N/A   Clear
3:53 PM 1.0 °F -8.7 °F -11.0 °F 57% 30.18 in 10.0 mi ESE 4.6 mph - N/A   Clear
4:53 PM -0.9 °F - -11.0 °F 62% 30.18 in 10.0 mi Calm Calm - N/A   Clear
5:53 PM -2.9 °F -11.2 °F -11.0 °F 68% 30.20 in 10.0 mi WSW 3.5 mph - N/A   Clear
6:53 PM -6.0 °F - -11.0 °F 79% 30.21 in 10.0 mi Calm Calm - N/A   Clear
7:53 PM -8.0 °F - -14.1 °F 75% 30.21 in 10.0 mi Calm Calm - N/A   Clear
8:53 PM -9.0 °F - -17.0 °F 68% 30.21 in 10.0 mi Calm Calm - N/A   Clear
9:53 PM -9.9 °F - -16.1 °F 74% 30.21 in 10.0 mi Calm Calm - N/A   Clear
10:53 PM -9.9 °F -21.5 °F -18.0 °F 68% 30.21 in 10.0 mi WNW 4.6 mph - N/A   Clear
11:53 PM -11.9 °F - -17.0 °F 78% 30.21 in 10.0 mi Calm Calm - N/A   Clear